Weather History for Barking Sands, HI

Change the Weather History Date:

Wednesday, September 12, 2012

  Actual Average Record
Temperature  
Mean Temperature 78 °F -  
Max Temperature 84 °F 87 °F 91 °F (1977)
Min Temperature 71 °F 68 °F 65 °F (1964)
Cooling Degree Days 12    
Growing Degree Days 28 (Base 50)    
Moisture  
Dew Point 61 °F    
Average Humidity 57    
Maximum Humidity 66    
Minimum Humidity 50    
Precipitation  
Precipitation 0.00 in - - ()
Sea Level Pressure  
Sea Level Pressure 30.03 in    
Wind  
Wind Speed 4 mph (WNW)    
Max Wind Speed 10 mph    
Max Gust Speed -    
Visibility 10 miles    
Events      
Averages and records for this station are not official NWS values.
T = Trace of Precipitation, MM = Missing Value Source: NWS Daily Summary

Daily Weather History Graph

Daily Weather History Graph

Search for Another Location

Airport:

Trip Planner

Search our weather history database for the weather conditions in past years. The results will help you decide how hot, cold, wet, or windy it might be!

Date:

Astronomy

Sep. 12, 2012 Rise Set
Actual Time 6:25 AM HST 6:44 PM HST
Civil Twilight 6:02 AM HST 7:06 PM HST
Nautical Twilight 5:36 AM HST 7:33 PM HST
Astronomical Twilight 5:10 AM HST 7:59 PM HST
Moon 3:14 AM HST (9/12) 4:23 PM HST (9/12)
Length of Visible Light 13h 03m
Length of Day
12h 19m
Waning Crescent, 12% of the Moon is Illuminated
Sep 12
Waning Crescent
Sep 15
New
Sep 22
First Quarter
Sep 29
Full
Oct 7
Last Quarter

Hourly Weather History & Observations

Time (HST) Temp. Heat Index Dew Point Humidity Pressure Visibility Wind Dir Wind Speed Gust Speed Precip Events Conditions
12:56 AM 72.0 °F - 57.9 °F 61% 30.04 in 10.0 mi ENE 3.5 mph - N/A   Clear
1:56 AM 72.0 °F - 57.9 °F 61% 30.03 in 10.0 mi Calm Calm - N/A   Clear
2:56 AM 73.0 °F - 57.9 °F 59% 30.03 in 10.0 mi ESE 3.5 mph - N/A   Clear
3:56 AM 71.1 °F - 57.9 °F 63% 30.02 in 10.0 mi East 3.5 mph - N/A   Clear
4:56 AM 71.1 °F - 59.0 °F 66% 30.02 in 10.0 mi East 6.9 mph - N/A   Mostly Cloudy
5:56 AM 72.0 °F - 60.1 °F 66% 30.04 in 10.0 mi Calm Calm - N/A   Clear
6:56 AM 72.0 °F - 60.1 °F 66% 30.05 in 10.0 mi Calm Calm - N/A   Mostly Cloudy
7:56 AM 79.0 °F - 63.0 °F 58% 30.06 in 10.0 mi Calm Calm - N/A   Clear
8:56 AM 80.1 °F 81.2 °F 62.1 °F 54% 30.06 in 10.0 mi NW 4.6 mph - N/A   Clear
9:56 AM 80.1 °F 81.5 °F 63.0 °F 56% 30.06 in 10.0 mi West 5.8 mph - N/A   Partly Cloudy
10:56 AM 82.0 °F 83.4 °F 64.0 °F 54% 30.04 in 10.0 mi West 10.4 mph - N/A   Clear
11:56 AM 82.9 °F 84.6 °F 64.9 °F 54% 30.03 in 10.0 mi NW 10.4 mph - N/A   Mostly Cloudy
12:56 PM 84.0 °F 85.4 °F 64.0 °F 51% 30.01 in 10.0 mi WNW 9.2 mph - N/A   Mostly Cloudy
1:56 PM 82.9 °F 84.4 °F 64.0 °F 53% 29.99 in 10.0 mi West 9.2 mph - N/A   Overcast
2:56 PM 84.0 °F 85.4 °F 64.0 °F 51% 29.98 in 10.0 mi WNW 9.2 mph - N/A   Overcast
3:56 PM 82.9 °F 84.0 °F 63.0 °F 51% 29.97 in 10.0 mi WNW 8.1 mph - N/A   Overcast
4:56 PM 84.0 °F 85.4 °F 64.0 °F 51% 29.98 in 10.0 mi WSW 6.9 mph - N/A   Scattered Clouds
5:56 PM 80.1 °F 82.1 °F 66.0 °F 62% 29.99 in 10.0 mi WNW 5.8 mph - 0.00 in   Mostly Cloudy
6:56 PM 78.1 °F - 64.9 °F 64% 30.01 in 10.0 mi Calm Calm - N/A   Clear
7:56 PM 75.9 °F - 59.0 °F 56% 30.04 in 10.0 mi Calm Calm - N/A   Clear
8:56 PM 77.0 °F - 57.9 °F 52% 30.06 in 10.0 mi Calm Calm - N/A   Clear
9:56 PM 78.1 °F - 57.9 °F 50% 30.06 in 10.0 mi Calm Calm - N/A   Overcast
10:56 PM 77.0 °F - 57.9 °F 52% 30.06 in 10.0 mi NNW 3.5 mph - N/A   Scattered Clouds
11:56 PM 73.9 °F - 57.9 °F 57% 30.06 in 10.0 mi South 3.5 mph - N/A   Clear